Time,TemperatureF,DewpointF,PressureIn,WindDirection,WindDirectionDegrees,WindSpeedMPH,WindSpeedGustMPH,Humidity,HourlyPrecipIn,Conditions,Clouds,dailyrainin,SolarRadiationWatts/m^2,SoftwareType,DateUTC
2013-03-30 00:23:00,53.0,52.0,-100.00,ENE,75,3.0,5.0,98,0.00,,,0.37,0.000000,,2013-03-30 10:23:00,
2013-03-30 00:32:00,53.0,52.0,-100.00,ENE,75,3.0,5.0,98,0.00,,,0.37,0.000000,,2013-03-30 10:32:00,
2013-03-30 00:42:00,53.0,52.0,-100.00,ENE,75,3.0,5.0,98,0.00,,,0.37,0.000000,,2013-03-30 10:42:00,
2013-03-30 00:52:00,53.0,52.0,-100.00,ENE,75,3.0,5.0,98,0.00,,,0.37,0.000000,,2013-03-30 10:52:00,
2013-03-30 01:22:00,50.0,49.0,-100.00,East,88,2.0,4.0,98,0.00,,,0.37,0.000000,,2013-03-30 11:22:00,
2013-03-30 01:32:00,50.0,49.0,-100.00,East,88,2.0,4.0,98,0.00,,,0.37,0.000000,,2013-03-30 11:32:00,
2013-03-30 01:42:00,50.0,49.0,-100.00,East,88,2.0,4.0,98,0.00,,,0.37,0.000000,,2013-03-30 11:42:00,
2013-03-30 01:52:00,50.0,49.0,-100.00,East,88,2.0,4.0,98,0.00,,,0.37,0.000000,,2013-03-30 11:52:00,
2013-03-30 02:22:00,48.0,48.0,-100.00,SSE,155,3.0,5.0,99,0.00,,,0.37,0.000000,,2013-03-30 12:22:00,
2013-03-30 02:32:00,48.0,48.0,-100.00,SSE,155,3.0,5.0,99,0.00,,,0.37,0.000000,,2013-03-30 12:32:00,
2013-03-30 02:42:00,48.0,48.0,-100.00,SSE,155,3.0,5.0,99,0.00,,,0.37,0.000000,,2013-03-30 12:42:00,
2013-03-30 02:52:00,48.0,48.0,-100.00,SSE,155,3.0,5.0,99,0.00,,,0.37,0.000000,,2013-03-30 12:52:00,
2013-03-30 03:22:00,48.0,48.0,-100.00,South,171,2.0,5.0,99,0.00,,,0.37,0.000000,,2013-03-30 13:22:00,
2013-03-30 03:32:00,48.0,48.0,-100.00,South,171,2.0,5.0,99,0.00,,,0.37,0.000000,,2013-03-30 13:32:00,
2013-03-30 03:42:00,48.0,48.0,-100.00,South,171,2.0,5.0,99,0.00,,,0.37,0.000000,,2013-03-30 13:42:00,
2013-03-30 03:52:00,48.0,48.0,-100.00,South,171,2.0,5.0,99,0.00,,,0.37,0.000000,,2013-03-30 13:52:00,
2013-03-30 04:22:00,46.0,46.0,-100.00,ESE,104,3.0,4.0,99,0.00,,,0.37,0.000000,,2013-03-30 14:22:00,
2013-03-30 04:32:00,46.0,46.0,-100.00,ESE,104,3.0,4.0,99,0.00,,,0.37,0.000000,,2013-03-30 14:32:00,
2013-03-30 04:42:00,46.0,46.0,-100.00,ESE,104,3.0,4.0,99,0.00,,,0.37,0.000000,,2013-03-30 14:42:00,
2013-03-30 04:52:00,46.0,46.0,-100.00,ESE,104,3.0,4.0,99,0.00,,,0.37,0.000000,,2013-03-30 14:52:00,
2013-03-30 05:22:00,46.0,46.0,-100.00,SE,126,6.0,7.0,99,0.00,,,0.37,0.000000,,2013-03-30 15:22:00,
2013-03-30 05:33:00,46.0,46.0,-100.00,SE,126,6.0,7.0,99,0.00,,,0.37,0.000000,,2013-03-30 15:33:00,
2013-03-30 05:42:00,46.0,46.0,-100.00,SE,126,6.0,7.0,99,0.00,,,0.37,0.000000,,2013-03-30 15:42:00,
2013-03-30 05:52:00,46.0,46.0,-100.00,SE,126,6.0,7.0,99,0.00,,,0.37,0.000000,,2013-03-30 15:52:00,
2013-03-30 06:23:00,44.0,43.0,-100.00,ESE,111,5.0,8.0,96,0.00,,,-99.99,0.000000,,2013-03-30 16:23:00,
2013-03-30 06:32:00,44.0,43.0,-100.00,ESE,111,5.0,8.0,96,0.00,,,-99.99,0.000000,,2013-03-30 16:32:00,
2013-03-30 06:42:00,44.0,43.0,-100.00,ESE,111,5.0,8.0,96,0.00,,,-99.99,0.000000,,2013-03-30 16:42:00,
2013-03-30 06:52:00,44.0,43.0,-100.00,ESE,111,5.0,8.0,96,0.00,,,-99.99,0.000000,,2013-03-30 16:52:00,
2013-03-30 07:22:00,45.0,44.0,-100.00,ESE,121,4.0,6.0,98,0.01,,,0.38,24.000000,,2013-03-30 17:22:00,
2013-03-30 07:32:00,45.0,44.0,-100.00,ESE,121,4.0,6.0,98,0.01,,,0.38,24.000000,,2013-03-30 17:32:00,
2013-03-30 07:42:00,45.0,44.0,-100.00,ESE,121,4.0,6.0,98,0.01,,,0.38,24.000000,,2013-03-30 17:42:00,
2013-03-30 07:52:00,45.0,44.0,-100.00,ESE,121,4.0,6.0,98,0.01,,,0.38,24.000000,,2013-03-30 17:52:00,
2013-03-30 08:22:00,56.0,53.0,-100.00,ENE,67,2.0,5.0,91,0.00,,,-99.99,155.000000,,2013-03-30 18:22:00,
2013-03-30 08:32:00,56.0,53.0,-100.00,ENE,67,2.0,5.0,91,0.00,,,-99.99,155.000000,,2013-03-30 18:32:00,
2013-03-30 08:42:00,56.0,53.0,-100.00,ENE,67,2.0,5.0,91,0.00,,,-99.99,155.000000,,2013-03-30 18:42:00,
2013-03-30 08:52:00,56.0,53.0,-100.00,ENE,67,2.0,5.0,91,0.00,,,-99.99,155.000000,,2013-03-30 18:52:00,
2013-03-30 09:22:00,59.0,50.0,-100.00,ENE,73,2.0,9.0,72,0.00,,,0.38,351.000000,,2013-03-30 19:22:00,
2013-03-30 09:32:00,59.0,50.0,-100.00,ENE,73,2.0,9.0,72,0.00,,,0.38,351.000000,,2013-03-30 19:32:00,
2013-03-30 09:42:00,59.0,50.0,-100.00,ENE,73,2.0,9.0,72,0.00,,,0.38,351.000000,,2013-03-30 19:42:00,
2013-03-30 09:52:00,59.0,50.0,-100.00,ENE,73,2.0,9.0,72,0.00,,,0.38,351.000000,,2013-03-30 19:52:00,
2013-03-30 10:22:00,60.0,52.0,-100.00,NNW,340,4.0,9.0,74,0.00,,,0.38,323.000000,,2013-03-30 20:22:00,
2013-03-30 10:32:00,60.0,52.0,-100.00,NNW,340,4.0,9.0,74,0.00,,,0.38,323.000000,,2013-03-30 20:32:00,
2013-03-30 10:42:00,60.0,52.0,-100.00,NNW,340,4.0,9.0,74,0.00,,,0.38,323.000000,,2013-03-30 20:42:00,
2013-03-30 10:52:00,60.0,52.0,-100.00,NNW,340,4.0,9.0,74,0.00,,,0.38,323.000000,,2013-03-30 20:52:00,
2013-03-30 11:22:00,59.0,53.0,-100.00,NNW,331,4.0,12.0,81,0.00,,,0.38,327.000000,,2013-03-30 21:22:00,
2013-03-30 11:33:00,59.0,53.0,-100.00,NNW,331,4.0,12.0,81,0.00,,,0.38,327.000000,,2013-03-30 21:33:00,
2013-03-30 11:43:00,59.0,53.0,-100.00,NNW,331,4.0,12.0,81,0.00,,,0.38,327.000000,,2013-03-30 21:43:00,
2013-03-30 11:52:00,59.0,53.0,-100.00,NNW,331,4.0,12.0,81,0.00,,,0.38,327.000000,,2013-03-30 21:52:00,
2013-03-30 12:23:00,57.0,52.0,-100.00,NW,316,9.0,16.0,83,0.00,,,0.38,420.000000,,2013-03-30 22:23:00,
2013-03-30 12:32:00,57.0,52.0,-100.00,NW,316,9.0,16.0,83,0.00,,,0.38,420.000000,,2013-03-30 22:32:00,
2013-03-30 12:43:00,57.0,52.0,-100.00,NW,316,9.0,16.0,83,0.00,,,0.38,420.000000,,2013-03-30 22:43:00,
2013-03-30 12:53:00,57.0,52.0,-100.00,NW,316,9.0,16.0,83,0.00,,,0.38,420.000000,,2013-03-30 22:53:00,
2013-03-30 13:22:00,56.0,54.0,-100.00,NNW,337,6.0,16.0,92,0.00,,,0.38,160.000000,,2013-03-30 23:22:00,
2013-03-30 13:32:00,56.0,54.0,-100.00,NNW,337,6.0,16.0,92,0.00,,,0.38,160.000000,,2013-03-30 23:32:00,
2013-03-30 13:42:00,56.0,54.0,-100.00,NNW,337,6.0,16.0,92,0.00,,,0.38,160.000000,,2013-03-30 23:42:00,
2013-03-30 13:52:00,56.0,54.0,-100.00,NNW,337,6.0,16.0,92,0.00,,,0.38,160.000000,,2013-03-30 23:52:00,
2013-03-30 14:22:00,53.0,52.0,-100.00,North,10,6.0,12.0,95,0.01,,,0.39,97.000000,,2013-03-31 00:22:00,
2013-03-30 14:32:00,53.0,52.0,-100.00,North,10,6.0,12.0,95,0.01,,,0.39,97.000000,,2013-03-31 00:32:00,
2013-03-30 14:42:00,53.0,52.0,-100.00,North,10,6.0,12.0,95,0.01,,,0.39,97.000000,,2013-03-31 00:42:00,
2013-03-30 14:52:00,53.0,52.0,-100.00,North,10,6.0,12.0,95,0.01,,,0.39,97.000000,,2013-03-31 00:52:00,
2013-03-30 15:22:00,53.0,52.0,-100.00,NNW,334,3.0,11.0,98,0.05,,,0.44,69.000000,,2013-03-31 01:22:00,
2013-03-30 15:32:00,53.0,52.0,-100.00,NNW,334,3.0,11.0,98,0.05,,,0.44,69.000000,,2013-03-31 01:32:00,
2013-03-30 15:42:00,53.0,52.0,-100.00,NNW,334,3.0,11.0,98,0.05,,,0.44,69.000000,,2013-03-31 01:42:00,
2013-03-30 15:52:00,53.0,52.0,-100.00,NNW,334,3.0,11.0,98,0.05,,,0.44,69.000000,,2013-03-31 01:52:00,
2013-03-30 16:22:00,54.0,53.0,-100.00,NNE,21,2.0,7.0,95,0.01,,,0.44,99.000000,,2013-03-31 02:22:00,
2013-03-30 16:32:00,54.0,53.0,-100.00,NNE,21,2.0,7.0,95,0.01,,,0.44,99.000000,,2013-03-31 02:32:00,
2013-03-30 16:42:00,54.0,53.0,-100.00,NNE,21,2.0,7.0,95,0.01,,,0.44,99.000000,,2013-03-31 02:42:00,
2013-03-30 16:52:00,54.0,53.0,-100.00,NNE,21,2.0,7.0,95,0.01,,,0.44,99.000000,,2013-03-31 02:52:00,
2013-03-30 17:22:00,54.0,51.0,-100.00,East,91,3.0,6.0,88,0.00,,,0.41,110.000000,,2013-03-31 03:22:00,
2013-03-30 17:32:00,54.0,51.0,-100.00,East,91,3.0,6.0,88,0.00,,,0.41,110.000000,,2013-03-31 03:32:00,
2013-03-30 17:43:00,54.0,51.0,-100.00,East,91,3.0,6.0,88,0.00,,,0.41,110.000000,,2013-03-31 03:43:00,
2013-03-30 17:53:00,54.0,51.0,-100.00,East,91,3.0,6.0,88,0.00,,,0.41,110.000000,,2013-03-31 03:53:00,
2013-03-30 18:22:00,53.0,52.0,-100.00,North,354,2.0,8.0,95,0.00,,,0.36,31.000000,,2013-03-31 04:22:00,
2013-03-30 18:32:00,53.0,52.0,-100.00,North,354,2.0,8.0,95,0.00,,,0.36,31.000000,,2013-03-31 04:32:00,
2013-03-30 18:42:00,53.0,52.0,-100.00,North,354,2.0,8.0,95,0.00,,,0.36,31.000000,,2013-03-31 04:42:00,
2013-03-30 18:52:00,53.0,52.0,-100.00,North,354,2.0,8.0,95,0.00,,,0.36,31.000000,,2013-03-31 04:52:00,
2013-03-30 19:22:00,54.0,53.0,-100.00,East,93,3.0,6.0,96,0.00,,,0.28,3.000000,,2013-03-31 05:22:00,
2013-03-30 19:32:00,54.0,53.0,-100.00,East,93,3.0,6.0,96,0.00,,,0.28,3.000000,,2013-03-31 05:32:00,
2013-03-30 19:42:00,54.0,53.0,-100.00,East,93,3.0,6.0,96,0.00,,,0.28,3.000000,,2013-03-31 05:42:00,
2013-03-30 19:52:00,54.0,53.0,-100.00,East,93,3.0,6.0,96,0.00,,,0.28,3.000000,,2013-03-31 05:52:00,
2013-03-30 20:22:00,54.0,52.0,-100.00,NE,41,1.0,5.0,94,0.00,,,0.19,0.000000,,2013-03-31 06:22:00,
2013-03-30 20:32:00,54.0,52.0,-100.00,NE,41,1.0,5.0,94,0.00,,,0.19,0.000000,,2013-03-31 06:32:00,
2013-03-30 20:42:00,54.0,52.0,-100.00,NE,41,1.0,5.0,94,0.00,,,0.19,0.000000,,2013-03-31 06:42:00,
2013-03-30 20:52:00,54.0,52.0,-100.00,NE,41,1.0,5.0,94,0.00,,,0.19,0.000000,,2013-03-31 06:52:00,
2013-03-30 21:22:00,51.0,50.0,-100.00,SE,124,3.0,7.0,95,0.00,,,0.08,0.000000,,2013-03-31 07:22:00,
2013-03-30 21:32:00,51.0,50.0,-100.00,SE,124,3.0,7.0,95,0.00,,,0.08,0.000000,,2013-03-31 07:32:00,
2013-03-30 21:42:00,51.0,50.0,-100.00,SE,124,3.0,7.0,95,0.00,,,0.08,0.000000,,2013-03-31 07:42:00,
2013-03-30 21:52:00,51.0,50.0,-100.00,SE,124,3.0,7.0,95,0.00,,,0.08,0.000000,,2013-03-31 07:52:00,
2013-03-30 22:22:00,50.0,49.0,-100.00,SE,141,1.0,5.0,97,0.00,,,0.08,0.000000,,2013-03-31 08:22:00,
2013-03-30 22:32:00,50.0,49.0,-100.00,SE,141,1.0,5.0,97,0.00,,,0.08,0.000000,,2013-03-31 08:32:00,
2013-03-30 22:42:00,50.0,49.0,-100.00,SE,141,1.0,5.0,97,0.00,,,0.08,0.000000,,2013-03-31 08:42:00,
2013-03-30 22:52:00,50.0,49.0,-100.00,SE,141,1.0,5.0,97,0.00,,,0.08,0.000000,,2013-03-31 08:52:00,
2013-03-30 23:22:00,51.0,49.0,-100.00,SSE,150,3.0,7.0,93,0.00,,,0.08,0.000000,,2013-03-31 09:22:00,
2013-03-30 23:32:00,51.0,49.0,-100.00,SSE,150,3.0,7.0,93,0.00,,,0.08,0.000000,,2013-03-31 09:32:00,
2013-03-30 23:42:00,51.0,49.0,-100.00,SSE,150,3.0,7.0,93,0.00,,,0.08,0.000000,,2013-03-31 09:42:00,
2013-03-30 23:52:00,51.0,49.0,-100.00,SSE,150,3.0,7.0,93,0.00,,,0.08,0.000000,,2013-03-31 09:52:00,